Location: Palmerston North
(40.3500°S, 175.6170°E)
Time: 14:49:20
(UTC+13:00)

Cosmos 968 Rocket - Pass Details

Date: 24 January 2019
Orbit: 742 x 770 km, 74.0° (Epoch: 18 February)

Event Time Altitude Azimuth Distance (km) Brightness Sun altitude
Exits shadow 23:08:48 53° 30° (NNE) 938 3.5 -22.0°
Maximum altitude 23:09:43 62° 75° (ENE) 859 3.5 -22.1°
Drops below altitude 10° 23:14:55 10° 154° (SSE) 2,326 6.3 -22.7°
Sets 23:17:20 0° 157° (SSE) 3,263 7.2 -23.0°
